Terminal Aerodrome Forecast
Issued by NWS Chicago, IL

Home | Current Version | Previous Version | Graphics & Text | Print | Product List | Glossary On
Versions: 1 2 3 4 5 6 7 8 9 10 11 12 13 14 15 16 17 18 19 20 21 22 23 24 25 26 27 28 29 30 31 32 33 34 35 36
000
FTUS43 KLOT 301700
TAFRFD
TAF
KRFD 301720Z 3018/0118 08008KT P6SM SCT008 BKN014
     FM302000 08007KT P6SM SCT025
     FM010600 10005KT P6SM BKN012
     FM011300 14012KT P6SM SCT025 BKN250=

USA.gov is the U.S. government's official web portal to all federal, state and local government web resources and services.